User: anonymous
Location: West Cummington
(42.4920°N, 72.9680°W)
Time: 00:14:54
(UTC-04:00)
Language:

Cosmos 841 Rocket - Orbit

View from above orbital plane
View from above orbital plane
View from above satellite
View from above satellite

Ground track
Ground track

The orbit data is extracted from the following two-line orbital elements,

1 09023U 76069B   14242.11542800  .00000116  00000-0  46055-4 0  4735
2 09023 074.0452 182.6595 0018767 242.8934 117.0306 14.39181050997763
Epoch (UTC): 30 August 2014 02:46:12
Eccentricity: 0.0018767
inclination: 74.0452°
perigee height: 748 km
apogee height: 774 km
right ascension of ascending node: 182.6595°
argument of perigee: 242.8934°
revolutions per day: 14.39181050
mean anomaly at epoch: 117.0306°
orbit number at epoch: 99776

The dashed part of the orbit path shows where the satellite is in the earth's shadow,  

DLR